Regional Weather Roundup
Issued by NWS Binghamton, NY

Home | Current Version | Previous Version | Text Only | Print | Product List | Glossary On
Versions: 1 2 3 4 5 6 7 8 9 10 11 12 13 14 15 16 17 18 19 20 21 22 23 24 25 26 27 28 29 30 31 32 33 34 35 36 37 38 39 40 41 42 43 44 45 46 47 48 49 50
401
ASUS41 KBGM 261610
RWRBGM

REGIONAL WEATHER ROUNDUP
NATIONAL WEATHER SERVICE BINGHAMTON NY
1100 AM EST SUN FEB 26 2017

Note: "fair" indicates few or no clouds below 12,000 feet with no
significant weather and/or obstructions to visibility.

* = Station(s) that does not report precipitation, such as rain,
snow, etc, also no thunder or fog.

NYZ009-015>018-022>025-036-037-044>046-055>057-062-261700
...Central New York...

CITY           SKY/WX    TMP DP  RH WIND       PRES   REMARKS
Binghamton     FLURRIES  25  18  74 NW13G20   29.96R WCI  14
Cortland       FAIR      30  19  64 W15G23    29.99S WCI  19
Dansville      CLOUDY    32  22  66 NW13      30.04F WCI  22
Elmira         CLOUDY    31  15  52 W10G17    30.02S WCI  22
Seneca Falls   CLOUDY    34  21  60 NW14G21   30.05R WCI  24
Ithaca         FLURRIES  28  23  81 NW9       30.02R WCI  19
Hamilton       CLOUDY    28  18  64 NW8       29.97S WCI  20
Monticello     MOSUNNY  N/A N/A N/A NW14G28   29.95R
Norwich        CLOUDY    28  16  59 W3G20     29.99S
Penn Yan       CLOUDY    31  16  54 W12G18    30.02R WCI  22
Rome           CLOUDY    30  19  63 NW16      30.01R WCI  19
Sidney         CLOUDY    28  16  59 NW9G21    30.00R WCI  20
Syracuse       FLURRIES  31  23  72 W20       30.02R WCI  19
$$

PAZ038>040-043-044-047-048-072-261700
...Northeast Pennsylvania...

CITY           SKY/WX    TMP DP  RH WIND       PRES   REMARKS
Hazleton       CLOUDY    32  21  64 W13G18    30.02R WCI  22
Scranton       CLOUDY    32  15  49 NW18G28   30.01S WCI  20
$$
&&
KEY
WCI = Wind Chill Index
VSB = Visibility
HX  = Heat Index
$$




USA.gov is the U.S. government's official web portal to all federal, state and local government web resources and services.